| time (UTC) | temp F | wind direction | speed MPH | gust MPH | rain 1hr in | rain 24hr in | rain mn in | humidity % | barometer mb |
| 20260902120012 | 88 | 93 | 8.0 | 0.0 | 0.00 | 0.00 | 0.00 | 42 | 1018.4 |
| 20260902114641 | 88 | 90 | 8.0 | 0.0 | 0.00 | 0.00 | 0.00 | 42 | 1018.3 |
| 20260902113121 | 88 | 113 | 8.0 | 0.0 | 0.00 | 0.00 | 0.00 | 41 | 1018.4 |
| 20260902111608 | 88 | 103 | 6.0 | 0.0 | 0.00 | 0.00 | 0.00 | 41 | 1018.4 |
| 20260902110013 | 87 | 134 | 6.0 | 0.0 | 0.00 | 0.00 | 0.00 | 44 | 1018.6 |
| 20260902104634 | 86 | 96 | 8.0 | 0.0 | 0.00 | 0.00 | 0.00 | 43 | 1018.7 |
| 20260902103108 | 87 | 51 | 7.0 | 0.0 | 0.00 | 0.00 | 0.00 | 44 | 1018.6 |
| 20260902101519 | 86 | 122 | 6.0 | 0.0 | 0.00 | 0.00 | 0.00 | 46 | 1018.8 |
| 20260902100134 | 86 | 78 | 4.0 | 0.0 | 0.00 | 0.00 | 0.00 | 46 | 1018.9 |
| 20260902094618 | 85 | 76 | 3.0 | 0.0 | 0.00 | 0.00 | 0.00 | 49 | 1018.9 |
| 20260902093023 | 85 | 86 | 2.0 | 0.0 | 0.00 | 0.00 | 0.00 | 51 | 1018.9 |
| 20260902091643 | 84 | 100 | 3.0 | 0.0 | 0.00 | 0.00 | 0.00 | 50 | 1018.9 |
| 20260902090125 | 84 | 132 | 3.0 | 0.0 | 0.00 | 0.00 | 0.00 | 55 | 1018.8 |
| 20260902084621 | 82 | 282 | 1.0 | 0.0 | 0.00 | 0.00 | 0.00 | 61 | 1018.7 |
| 20260902083117 | 79 | 282 | 1.0 | 0.0 | 0.00 | 0.00 | 0.00 | 66 | 1018.5 |
| 20260902081511 | 77 | 281 | 3.0 | 0.0 | 0.00 | 0.00 | 0.00 | 69 | 1018.4 |
| 20260902080137 | 75 | 302 | 3.0 | 0.0 | 0.00 | 0.00 | 0.00 | 72 | 1018.3 |
| 20260902074633 | 74 | 293 | 3.0 | 0.0 | 0.00 | 0.00 | 0.00 | 77 | 1018.4 |
| 20260902073101 | 72 | 292 | 2.0 | 0.0 | 0.00 | 0.00 | 0.00 | 81 | 1018.4 |
| 20260902071504 | 70 | 309 | 2.0 | 0.0 | 0.00 | 0.00 | 0.00 | 84 | 1018.3 |
| 20260902070132 | 69 | 309 | 3.0 | 0.0 | 0.00 | 0.00 | 0.00 | 86 | 1018.3 |
| 20260902064613 | 68 | 305 | 2.0 | 0.0 | 0.00 | 0.00 | 0.00 | 87 | 1018.2 |
| 20260902063027 | 67 | 340 | 2.0 | 0.0 | 0.00 | 0.00 | 0.00 | 88 | 1018.1 |
| 20260902061534 | 67 | 346 | 1.0 | 0.0 | 0.00 | 0.00 | 0.00 | 87 | 1018.0 |
| 20260902060140 | 67 | 347 | 1.0 | 0.0 | 0.00 | 0.00 | 0.00 | 87 | 1017.9 |
| 20260902054620 | 67 | 346 | 1.0 | 0.0 | 0.00 | 0.00 | 0.00 | 86 | 1017.8 |
| 20260902053114 | 67 | 347 | 0.0 | 0.0 | 0.00 | 0.00 | 0.00 | 86 | 1017.7 |
| 20260902051507 | 68 | 355 | 3.0 | 0.0 | 0.00 | 0.00 | 0.00 | 87 | 1017.5 |
| 20260902050133 | 68 | 339 | 3.0 | 0.0 | 0.00 | 0.00 | 0.00 | 87 | 1017.4 |
| 20260902044618 | 68 | 329 | 2.0 | 0.0 | 0.00 | 0.00 | 0.00 | 87 | 1017.4 |
| 20260902043033 | 68 | 329 | 3.0 | 0.0 | 0.00 | 0.00 | 0.00 | 86 | 1017.4 |
| 20260902041508 | 68 | 328 | 3.0 | 0.0 | 0.00 | 0.00 | 0.00 | 87 | 1017.5 |
| 20260902040134 | 68 | 323 | 2.0 | 0.0 | 0.00 | 0.00 | 0.00 | 86 | 1017.4 |
| 20260902034614 | 68 | 322 | 2.0 | 0.0 | 0.00 | 0.00 | 0.00 | 86 | 1017.3 |
| 20260902033018 | 68 | 360 | 2.0 | 0.0 | 0.00 | 0.00 | 0.00 | 86 | 1017.3 |
| 20260902031642 | 69 | 360 | 2.0 | 0.0 | 0.00 | 0.00 | 0.00 | 86 | 1017.4 |
| 20260902030124 | 69 | 94 | 2.0 | 0.0 | 0.00 | 0.00 | 0.00 | 86 | 1017.3 |
| 20260902024617 | 69 | 360 | 2.0 | 0.0 | 0.00 | 0.00 | 0.00 | 86 | 1017.4 |
| 20260902023117 | 69 | 360 | 3.0 | 0.0 | 0.00 | 0.00 | 0.00 | 86 | 1017.4 |
| 20260902021504 | 69 | 360 | 3.0 | 0.0 | 0.00 | 0.00 | 0.00 | 86 | 1017.4 |
| 20260902020130 | 68 | 25 | 1.0 | 0.0 | 0.00 | 0.00 | 0.00 | 86 | 1017.4 |
| 20260902014610 | 69 | 19 | 0.0 | 0.0 | 0.00 | 0.00 | 0.00 | 85 | 1017.3 |
| 20260902013015 | 69 | 25 | 0.0 | 0.0 | 0.00 | 0.00 | 0.00 | 85 | 1017.5 |
| 20260902011641 | 69 | 17 | 0.0 | 0.0 | 0.00 | 0.00 | 0.00 | 85 | 1017.5 |
| 20260902010120 | 70 | 14 | 0.0 | 0.0 | 0.00 | 0.00 | 0.00 | 84 | 1017.5 |
| 20260902004558 | 70 | 14 | 0.0 | 0.0 | 0.00 | 0.00 | 0.00 | 84 | 1017.5 |
| 20260902003002 | 70 | 14 | 0.0 | 0.0 | 0.00 | 0.00 | 0.00 | 84 | 1017.5 |
| 20260902001622 | 70 | 14 | 0.0 | 0.0 | 0.00 | 0.00 | 0.00 | 84 | 1017.6 |
| 20260902000111 | 70 | 13 | 0.0 | 0.0 | 0.00 | 0.00 | 0.00 | 83 | 1017.5 |
| 20260901234510 | 70 | 12 | 0.0 | 0.0 | 0.00 | 0.00 | 0.00 | 82 | 1017.3 |
| 20260901233134 | 71 | 13 | 0.0 | 0.0 | 0.00 | 0.00 | 0.00 | 82 | 1017.3 |
| 20260901231620 | 71 | 13 | 0.0 | 0.0 | 0.00 | 0.00 | 0.00 | 83 | 1017.2 |
| 20260901230107 | 72 | 13 | 0.0 | 0.0 | 0.00 | 0.00 | 0.00 | 81 | 1017.3 |
| 20260901224639 | 72 | 12 | 0.0 | 0.0 | 0.00 | 0.00 | 0.00 | 80 | 1017.2 |
| 20260901223113 | 72 | 13 | 0.0 | 0.0 | 0.00 | 0.00 | 0.00 | 81 | 1017.2 |
| 20260901221538 | 72 | 13 | 0.0 | 0.0 | 0.00 | 0.00 | 0.00 | 81 | 1017.3 |
| 20260901220134 | 73 | 13 | 2.0 | 0.0 | 0.00 | 0.00 | 0.00 | 80 | 1017.1 |
| 20260901214618 | 73 | 13 | 1.0 | 0.0 | 0.00 | 0.00 | 0.00 | 79 | 1016.9 |
| 20260901213107 | 74 | 13 | 0.0 | 0.0 | 0.00 | 0.00 | 0.00 | 76 | 1016.7 |
| 20260901211514 | 75 | 13 | 0.0 | 0.0 | 0.00 | 0.00 | 0.00 | 74 | 1016.3 |
| 20260901210134 | 76 | 13 | 0.0 | 0.0 | 0.00 | 0.00 | 0.00 | 73 | 1016.4 |
| 20260901204624 | 76 | 13 | 1.0 | 0.0 | 0.00 | 0.00 | 0.00 | 73 | 1016.4 |
| 20260901203027 | 76 | 13 | 3.0 | 0.0 | 0.00 | 0.00 | 0.00 | 73 | 1016.6 |
| 20260901201504 | 76 | 9 | 0.0 | 0.0 | 0.00 | 0.00 | 0.00 | 73 | 1016.6 |
| 20260901200139 | 76 | 57 | 0.0 | 0.0 | 0.00 | 0.00 | 0.00 | 73 | 1016.4 |
| 20260901194626 | 77 | 59 | 2.0 | 0.0 | 0.00 | 0.00 | 0.00 | 71 | 1016.0 |
| 20260901193112 | 77 | 31 | 1.0 | 0.0 | 0.00 | 0.00 | 0.00 | 71 | 1015.8 |
| 20260901191635 | 78 | 30 | 2.0 | 0.0 | 0.00 | 0.00 | 0.00 | 70 | 1015.7 |
| 20260901190003 | 78 | 43 | 2.0 | 0.0 | 0.00 | 0.00 | 0.00 | 69 | 1015.6 |
| 20260901184629 | 78 | 360 | 2.0 | 0.0 | 0.00 | 0.00 | 0.00 | 69 | 1015.7 |
| 20260901183116 | 79 | 72 | 2.0 | 0.0 | 0.00 | 0.00 | 0.00 | 68 | 1015.5 |
| 20260901181525 | 79 | 76 | 4.0 | 0.0 | 0.00 | 0.00 | 0.00 | 67 | 1015.7 |
| 20260901180006 | 80 | 86 | 3.0 | 0.0 | 0.00 | 0.00 | 0.00 | 66 | 1015.8 |
| 20260901174629 | 80 | 51 | 4.0 | 0.0 | 0.00 | 0.00 | 0.00 | 66 | 1015.5 |
| 20260901173030 | 80 | 67 | 5.0 | 0.0 | 0.00 | 0.00 | 0.00 | 65 | 1015.7 |
| 20260901171510 | 80 | 84 | 6.0 | 0.0 | 0.00 | 0.00 | 0.00 | 64 | 1015.9 |
| 20260901170134 | 80 | 86 | 6.0 | 0.0 | 0.00 | 0.00 | 0.00 | 65 | 1016.0 |
| 20260901164632 | 81 | 200 | 7.0 | 0.0 | 0.00 | 0.00 | 0.00 | 64 | 1016.0 |
| 20260901163015 | 81 | 101 | 9.0 | 0.0 | 0.00 | 0.00 | 0.00 | 64 | 1016.1 |
| 20260901161503 | 80 | 96 | 9.0 | 0.0 | 0.00 | 0.00 | 0.00 | 63 | 1016.3 |
| 20260901160129 | 80 | 87 | 11.0 | 0.0 | 0.00 | 0.00 | 0.00 | 64 | 1016.1 |
| 20260901154619 | 80 | 99 | 10.0 | 0.0 | 0.00 | 0.00 | 0.00 | 62 | 1016.2 |
| 20260901153107 | 80 | 97 | 11.0 | 0.0 | 0.00 | 0.00 | 0.00 | 62 | 1016.2 |
| 20260901151644 | 81 | 157 | 10.0 | 0.0 | 0.00 | 0.00 | 0.00 | 60 | 1016.2 |
| 20260901150124 | 81 | 71 | 7.0 | 0.0 | 0.00 | 0.00 | 0.00 | 59 | 1016.1 |
| 20260901144603 | 80 | 78 | 9.0 | 0.0 | 0.00 | 0.00 | 0.00 | 58 | 1016.2 |
| 20260901143011 | 81 | 76 | 9.0 | 0.0 | 0.00 | 0.00 | 0.00 | 56 | 1016.4 |
| 20260901141643 | 81 | 77 | 10.0 | 0.0 | 0.00 | 0.00 | 0.00 | 56 | 1016.5 |
| 20260901140137 | 81 | 69 | 10.0 | 0.0 | 0.00 | 0.00 | 0.00 | 55 | 1016.7 |
| 20260901134613 | 82 | 180 | 9.0 | 0.0 | 0.00 | 0.00 | 0.00 | 54 | 1016.9 |
| 20260901133018 | 82 | 103 | 11.0 | 0.0 | 0.00 | 0.00 | 0.00 | 53 | 1016.9 |
| 20260901131645 | 83 | 131 | 11.0 | 0.0 | 0.00 | 0.00 | 0.00 | 53 | 1017.1 |
| 20260901130128 | 82 | 120 | 13.0 | 0.0 | 0.00 | 0.00 | 0.00 | 53 | 1017.3 |
| 20260901124611 | 82 | 142 | 12.0 | 0.0 | 0.00 | 0.00 | 0.00 | 49 | 1017.4 |
| 20260901123024 | 83 | 76 | 9.0 | 0.0 | 0.00 | 0.00 | 0.00 | 48 | 1017.6 |
| 20260901121512 | 83 | 176 | 10.0 | 0.0 | 0.00 | 0.00 | 0.00 | 48 | 1017.8 |